TALO2: Illinois River, Tahlequah, OK

Data processed at Fri Nov 09 2018 23:32


All information presented herein is the property of the government of the United States of America and may be revised or deleted at any time without prior notice.
Dissemination of this information without the expressed written consent of the Public Affairs Office, Tulsa District U.S. Army Corps of Engineers is strictly prohibited.
These data are gathered electronically and, as presented, have not undergone any form of quality control. These data are not guaranteed to be valid or correct.
Go to home page.
Go to station list.
Go to home page.

Upstream stations:

Downstream station:
Previous Day
Next Day
Current Day
    
SHEF ID:       TALO2     Illinois River near Tahlequah, O
STATION TYPE:  

               PRECIP PRECIP(A)     STAGE  STAGE(2)  RIV-FLOW  BAT-LOAD
                   in        in        ft        ft       cfs      volt
              Ccp-Rev   Ccp-Rev   Ccp-Rev   Ccp-Rev   Ccp-Rev   Ccp-Rev
(US/Central)
11/09 00:00      0.00      ----      6.21      6.25       492     12.41
11/09 01:00      0.00      ----      6.20      6.23       485     12.41
11/09 02:00      0.00      ----      6.19      6.23       477     12.41
11/09 03:00      0.00      ----      6.20      6.23       485     12.41
11/09 04:00      0.00      ----      6.18      6.22       470     12.41
11/09 05:00      0.00      ----      6.17      6.23       463     12.41
11/09 06:00      0.00      ----      6.19      6.22       477     12.41
11/09 07:00      0.00      ----      6.17      6.22       463     12.41
11/09 08:00      0.00      ----      6.17      6.21       463     12.41
11/09 09:00      0.00      ----      6.16      6.20       456     12.41
11/09 10:00      0.00      ----      6.16      6.21       456     12.49
11/09 11:00      0.00      ----      6.16      6.23       456     12.81
11/09 12:00      0.00      ----      6.15      6.20       449     13.68
11/09 13:00      0.00      ----      6.13      6.19       435     13.68
11/09 14:00      0.00      ----      6.13      6.20       435     13.44
11/09 15:00      0.00      ----      6.13      6.21       435     13.21
11/09 16:00      0.00      ----      6.14      6.20       442     13.60
11/09 17:00      0.00      ----      6.14      6.17       442     12.97
11/09 18:00      0.00      ----      6.13      6.18       435     12.81
11/09 19:00      0.00      ----      6.14      6.17       442     12.73
11/09 20:00      0.00      ----      6.13      6.17       435     12.65
11/09 21:00      0.00      ----      6.12      6.17       428     12.65
11/09 22:00      0.00      ----      6.13      6.16       435     12.65
11/09 23:00      ----      ----      ----      ----      ----      ----